Location: Kelshall
(52.0000°N, 0.0500°W)
Time: 19:59:34
(UTC+00:00)

NOSS 8 (H) - Visible Passes

Search period start: 26 January 2021 00:00
Search period end: 05 February 2021 00:00
Orbit: 381 x 1791 km, 63.3° (Epoch: 25 January)

Date Brightness Start Highest point End Pass type
(mag) Time Alt. Az. Time Alt. Az. Time Alt. Az.
26 Jan 5.5 17:50:05 10° NW 17:53:28 36° NE 17:56:55 15° E visible
26 Jan 6.1 19:39:49 10° WNW 19:43:43 45° SW 19:43:59 44° SW visible
27 Jan 5.2 18:49:21 10° NW 18:53:14 79° SW 18:56:04 26° SE visible
27 Jan 7.9 20:40:35 10° W 20:43:10 15° WSW 20:43:10 15° WSW visible
28 Jan 5.0 17:59:01 10° NW 18:02:43 61° NE 18:07:51 10° ESE visible
28 Jan 7.2 19:49:14 10° WNW 19:52:50 26° SW 19:55:43 17° SSW visible
29 Jan 6.3 18:58:30 10° WNW 19:02:22 44° SW 19:07:43 10° SSE visible
30 Jan 5.3 18:08:00 10° NW 18:11:53 77° SW 18:17:21 10° SE visible
30 Jan 8.1 19:59:18 10° W 20:01:52 15° WSW 20:04:52 10° SSW visible
31 Jan 5.1 17:17:39 10° NW 17:21:22 63° NE 17:26:31 10° ESE visible
31 Jan 7.4 19:07:54 10° WNW 19:11:28 25° SW 19:16:05 10° S visible
01 Feb 6.5 18:17:08 10° WNW 18:21:00 43° SW 18:26:19 10° SSE visible
02 Feb 5.4 17:26:37 10° NW 17:30:31 75° SW 17:35:58 10° SE visible
02 Feb 8.4 19:18:00 10° W 19:20:29 14° WSW 19:23:22 10° SSW visible
03 Feb 7.7 18:26:33 10° WNW 18:30:05 25° SW 18:34:38 10° S visible
04 Feb 6.7 17:35:45 10° WNW 17:39:36 42° SW 17:44:54 10° SSE visible
